Regional Weather Roundup
Issued by NWS Green Bay, WI

Home | Current Version | Previous Version | Graphics & Text | Print | Product List | Glossary Off
Versions: 1 2 3 4 5 6 7 8 9 10 11 12 13 14 15 16 17 18 19 20 21 22 23 24 25 26 27 28 29 30 31 32 33 34 35 36 37 38 39 40 41 42 43 44 45 46 47 48 49 50

000
ASUS43 KGRB 051510
RWRGRB

NORTH-CENTRAL AND NORTHEAST WISCONSIN REGIONAL WEATHER ROUNDUP
NATIONAL WEATHER SERVICE GREEN BAY WI
900 AM CST THU MAR 05 2015

WIZ005-009-010>012-018-019-051600-
NORTH CENTRAL WISCONSIN

CITY           SKY/WX    TMP DP  RH WIND       PRES   REMARKS
IRONWOOD       SUNNY     -2  -8  78 SW8       30.35R WCI -17
MANITOWISH WTR SUNNY     -8 -14  72 CALM      30.33R
ARBOR VITAE    SUNNY     -4 -11  70 W5        30.34R WCI -14
EAGLE RIVER    SUNNY     -4 -13  65 W5        30.32R WCI -14
LAND O LAKES   SUNNY      0  -9  67 W8        30.32R WCI -15
RHINELANDER    SUNNY     -6 -14  68 W5        30.34R WCI -17
PHILLIPS       MOSUNNY   -8 -15  70 CALM      30.37R
ANTIGO         SUNNY    -10 -16  76 CALM      30.37R
TOMAHAWK       SUNNY     -3 -12  66 CALM      30.38R
MERRILL        SUNNY     -6 -15  63 CALM      30.39R
$$

WIZ013-073-051600-
NORTHEAST WISCONSIN

CITY           SKY/WX    TMP DP  RH WIND       PRES   REMARKS
IRON MOUNTAIN  SUNNY     -1 -10  65 W6        30.36R WCI -13
MARINETTE      SUNNY      1  -8  66 W5        30.44R WCI  -8
OCONTO           N/A      2  -8  60 W5        30.47R WCI  -7
$$

WIZ017-030-035>037-045-051600-
CENTRAL WISCONSIN

CITY           SKY/WX    TMP DP  RH WIND       PRES   REMARKS
MEDFORD        SUNNY     -6 -15  65 CALM      30.39R
WAUSAU         SUNNY     -4 -14  62 NW6       30.41R WCI -16
MOSINEE        SUNNY     -2 -11  65 W3        30.43R
MARSHFIELD     SUNNY     -5 -14  65 W7        30.43R WCI -19
WISC RAPIDS    SUNNY     -1 -13  56 CALM      30.48R
STEVENS POINT  SUNNY     -2 -13  58 SW3       30.45R
WAUPACA        SUNNY      6  -9  49 W3        30.48R
SHAWANO        SUNNY      3 -10  54 W3        30.46R
CLINTONVILLE   SUNNY      3  -9  55 CALM      30.46R
$$

WIZ038-039-048-051-051600-
FOX VALLEY

CITY           SKY/WX    TMP DP  RH WIND       PRES   REMARKS
NWS GREEN BAY  SUNNY      2  -9  60 W3        30.47R
APPLETON       SUNNY      0 -11  60 W5        30.46R WCI -10
OSHKOSH        SUNNY      2  -9  60 W6        30.47R WCI  -9
FOND DU LAC    SUNNY      5  -9  52 CALM      30.48R
$$

WIZ022-050-052-051600-
EAST CENTRAL WISCONSIN

CITY           SKY/WX    TMP DP  RH WIND       PRES   REMARKS
STURGEON BAY   SUNNY      0  -9  65 CALM      30.46R
MANITOWOC      SUNNY      8  -6  52 NW7       30.47R WCI  -3
SHEBOYGAN      SUNNY      3  -9  57 W8        30.46R WCI -10
$$

LMZ563-521-522-541>543-051600-
LAKESHORE

STATION/POSITION TIME  TEMP    WIND        PRES    VSBY  WAVE
                       AIR SEA DIR/SP/G                  HT/PER
                 (UTC) (F)     (DEG/KT/KT) (MB)    (MI)  (FT/S)
SHEBOYGAN LKSHOR 1500    5     280/  8/  9 1033.7R
KEWAUNEE LKSHORE 1500    2     290/  6/ 10 1030.3R
NORTHPORT PIER   1500    2     300/  4/  9 1030.8R
SISTER BAY LKSHO 1500    8     300/  7/  8   N/A
CHAMBERS ISLAND  1500    0     210/  4/  5 1030.8R
MENOMINEE LKSHOR 1500    1     220/  3     1031.6R
$$



USA.gov is the U.S. government's official web portal to all federal, state and local government web resources and services.